Location: Most
(50.5133°N, 13.6207°E)
Time: 14:25:07
(UTC+02:00)

ISS - Pass Details

Date: 15 September 2017
Orbit: 402 x 407 km, 51.6° (Epoch: 21 September)

Event Time Altitude Azimuth Distance (km) Brightness Sun altitude
Exits shadow 05:19:29 21° 283° (WNW) 985 -2.4 -13.4°
Maximum altitude 05:21:35 87° 194° (SSW) 414 -3.9 -13.1°
Drops below altitude 10° 05:24:53 10° 106° (ESE) 1,469 -0.2 -12.6°
Sets 05:26:57 0° 106° (ESE) 2,328 1.0 -12.3°
